Regional Weather Roundup
Issued by NWS

Home | Current Version | Previous Version | Graphics & Text | Print | Product List | Glossary Off
Versions: 1 2 3 4 5 6 7 8 9 10 11 12 13 14 15 16 17 18 19 20 21 22 23 24 25 26 27 28 29 30 31 32 33 34 35 36 37 38 39 40 41 42 43 44 45 46 47 48 49 50

000
ASUS43 KLMK 250502
RWRKY
KENTUCKY REGIONAL WEATHER ROUNDUP
NATIONAL WEATHER SERVICE LOUISVILLE KY
100 AM EDT MON SEP 25 2017

NOTE "FAIR" INDICATES FEW OR NO CLOUDS BELOW 12,000 FEET
WITH NO SIGNIFICANT WEATHER AND/OR OBSTRUCTIONS TO VISIBILITY.

KYZ001>023-026-027-061>063-070>075-250600-
WESTERN AND SOUTH CENTRAL KENTUCKY

CITY           SKY/WX    TMP DP  RH WIND       PRES   REMARKS
PADUCAH        CLEAR     68  63  84 CALM      29.98F
HENDERSON      MOCLDY    68  66  93 CALM      30.00S
OWENSBORO      NOT AVBL
HOPKINSVILLE   MOCLDY    71  68  90 CALM      29.99F
BOWLING GREEN  CLEAR     71  71 100 CALM      30.01F
GLASGOW        NOT AVBL
$$

KYZ024-025-028>034-038-045-046-053-250600-
NORTH CENTRAL KENTUCKY

CITY           SKY/WX    TMP DP  RH WIND       PRES   REMARKS
LOUISVILLE/SDF PTCLDY    75  62  64 CALM      30.02S
LOUISVILLE/LOU CLEAR     67  64  90 CALM      30.03S
FORT KNOX      CLEAR     66  63  90 CALM      30.01S
$$

KYZ035>037-039>044-047>052-055>060-089>105-250600-
NORTHEAST KENTUCKY

CITY           SKY/WX    TMP DP  RH WIND       PRES   REMARKS
LEXINGTON      CLEAR     72  60  66 CALM      30.05F
COVINGTON      PTCLDY    70  58  65 CALM      30.05S
FRANKFORT      CLEAR     64  60  87 CALM      30.04S
$$

KYZ054-064>069-076>088-106>120-250600-
SOUTHEAST KENTUCKY

CITY           SKY/WX    TMP DP  RH WIND       PRES   REMARKS
JACKSON        PTCLDY    71  59  65 CALM      30.07F
LONDON         CLEAR     68  63  84 CALM      30.06S
SOMERSET       NOT AVBL
MIDDLESBORO    CLEAR     63  63  99 CALM      30.07F
MONTICELLO     CLEAR     63  62  97 CALM      30.06F FOG
$$





USA.gov is the U.S. government's official web portal to all federal, state and local government web resources and services.